Location: Habighorst
(52.7089°N, 10.2278°E)
Time: 23:37:03
(UTC+00:00)

Cosmos 614 Rocket - Pass Details

Date: 13 January 2026
Orbit: 728 x 757 km, 74.1° (Epoch: 7 February)

Event Time Altitude Azimuth Distance (km) Brightness Sun altitude
Exits shadow 04:47:39 53° 234° (SW) 895 4.0 -22.9°
Maximum altitude 04:48:45 72° 298° (WNW) 772 3.7 -22.7°
Drops below altitude 10° 04:53:48 10° 23° (NNE) 2,237 6.6 -22.0°
Sets 04:56:10 0° 25° (NNE) 3,164 7.4 -21.6°
